Location: Doughton Park
(36.4224°N, 81.1835°W)
Time: 17:18:38
(UTC-05:00)

Amateur Radio Satellites - All Passes

Search period start: 25 January 2015 16:48
Search period end: 26 January 2015 16:48
Location: Doughton Park, 36.4224°N, 81.1835°W

Satellite Date Start Highest point End Downlink Frequencies (MHz)
Time Altitude Azimuth
MOZHAYETS 4 25 Jan 17:05:58 17:10:29 61° 100° (E) 17:15:00
O/OREOS (USA 219) 25 Jan 17:07:24 17:11:51 74° 108° (ESE) 17:16:21 437.305
CUSAT 1 25 Jan 17:13:38 17:18:44 25° 276° (W) 17:22:43 437.405
VERMONT LUNAR 25 Jan 17:22:01 17:22:32 10° 218° (SW) 17:22:55 437.305
AO-7 25 Jan 17:32:01 17:37:45 19° 269° (W) 17:43:01 29.400- 29.500
Cubesat XI-IV 25 Jan 17:38:24 17:43:34 57° 73° (ENE) 17:48:49 437.490
JAS-2 25 Jan 17:39:49 17:44:13 21° 266° (W) 17:48:12 435.910
PHONESAT 2.4 25 Jan 17:55:51 17:56:48 11° 218° (SW) 17:57:35 2401.200-2431.200
RS-15 25 Jan 17:59:29 18:05:12 14° 259° (W) 18:09:48 29.354- 29.394
CUTE-I 25 Jan 17:59:30 18:04:48 89° 93° (E) 18:10:11 437.470
DANDE 25 Jan 18:08:25 18:09:52 11° 283° (WNW) 18:10:47 436.750
MOZHAYETS 4 25 Jan 18:45:27 18:47:17 12° 294° (WNW) 18:48:51
CUBESAT XI-V 25 Jan 18:46:32 18:51:06 52° 99° (E) 18:55:41 437.345
O/OREOS (USA 219) 25 Jan 18:50:59 18:51:55 10° 307° (NW) 18:52:35 437.305
STRAND 1 25 Jan 18:51:03 18:55:51 39° 98° (E) 19:00:41 437.568
PRISM 25 Jan 18:57:22 19:01:30 76° 285° (WNW) 19:05:39 437.425
JUGNU 25 Jan 19:05:53 19:08:08 12° 170° (S) 19:10:28 437.505
Cubesat XI-IV 25 Jan 19:20:56 19:24:08 15° 270° (W) 19:27:04 437.490
CUTE 1.7 + AOD 2 25 Jan 19:26:52 19:28:57 14° 68° (ENE) 19:31:13 437.475
YUBILEINY 25 Jan 19:28:33 19:36:12 38° 88° (E) 19:44:02 435.215
BRITE-PL 25 Jan 19:54:44 19:59:17 44° 72° (ENE) 20:04:17 437.365/2234.400
HO-68 25 Jan 19:57:20 20:04:12 53° 70° (ENE) 20:11:08 435.675
SEEDS 25 Jan 20:01:33 20:05:11 28° 72° (ENE) 20:08:54 437.485
SO-50 25 Jan 20:06:21 20:10:54 37° 53° (NE) 20:15:29 436.795
GOMX 1 25 Jan 20:10:51 20:15:29 45° 73° (ENE) 20:20:29 467.674
CUBESAT XI-V 25 Jan 20:25:31 20:28:11 15° 293° (WNW) 20:30:38 437.345
STRAND 1 25 Jan 20:30:52 20:34:50 22° 292° (WNW) 20:38:41 437.568
COMPASS 1 25 Jan 20:33:25 20:37:34 56° 75° (ENE) 20:41:44 437.405
CANX-2 25 Jan 20:35:24 20:39:43 85° 258° (WSW) 20:44:02 2200.000
DOVE 4 25 Jan 20:41:54 20:46:45 68° 76° (ENE) 20:51:55 437.250
Oscar 11 25 Jan 20:47:40 20:51:34 34° 73° (ENE) 20:55:32 145.826/435.025
JUGNU 25 Jan 20:52:57 20:56:24 16° 180° (S) 20:59:50 437.505
CINEMA 3 25 Jan 20:58:54 21:03:37 58° 75° (ENE) 21:08:34 145.822/145.860
CUTE 1.7 + AOD 2 25 Jan 21:00:24 21:04:33 46° 261° (W) 21:08:42 437.475
CUBEBUG 2 25 Jan 21:01:47 21:06:03 36° 72° (ENE) 21:10:26 437.445
AAUSAT CUBESAT 2 25 Jan 21:02:48 21:07:01 73° 259° (W) 21:11:14 437.432
UKube-1 25 Jan 21:20:30 21:24:39 48° 74° (ENE) 21:28:51 .
DELFI C3 25 Jan 21:20:56 21:25:00 68° 77° (ENE) 21:29:04 145.870
YUBILEINY 25 Jan 21:24:49 21:32:57 42° 285° (WNW) 21:41:02 435.215
SRMSAT 25 Jan 21:25:50 21:28:57 14° 174° (S) 21:32:05 437.500
ZACube-1 25 Jan 21:26:55 21:31:17 46° 74° (ENE) 21:35:44 437.345
BRITE-PL 25 Jan 21:34:44 21:38:10 18° 271° (W) 21:41:35 437.365/2234.400
ESTCUBE 1 25 Jan 21:35:38 21:36:27 11° 65° (ENE) 21:37:34 437.505/2401.250
DX 1 25 Jan 21:36:18 21:40:38 78° 75° (ENE) 21:45:00 434.975-435.025
SEEDS 25 Jan 21:37:47 21:41:04 21° 267° (W) 21:44:14 437.485
FUNcube-1 25 Jan 21:40:06 21:44:36 65° 76° (ENE) 21:49:12 145.935
AISAT 25 Jan 21:42:15 21:46:08 31° 71° (ENE) 21:50:06 437.250
HO-68 25 Jan 21:46:27 21:52:18 26° 266° (W) 21:57:57 435.675
SO-50 25 Jan 21:47:18 21:51:19 24° 248° (WSW) 21:55:12 436.795
UWE-3 25 Jan 21:49:56 21:54:34 80° 258° (WSW) 21:59:18 435.000/436.395/437.385
GOMX 1 25 Jan 21:50:31 21:53:58 18° 270° (W) 21:57:21 467.674
TIGRISAT 25 Jan 21:51:33 21:52:07 10° 88° (E) 21:52:59 435.000
HUMSAT D 25 Jan 22:01:09 22:05:25 61° 76° (ENE) 22:09:45 437.325/437.525
AIST 1 25 Jan 22:06:49 22:08:08 11° 70° (ENE) 22:09:43
VELOX 1 25 Jan 22:12:07 22:16:29 67° 76° (ENE) 22:20:55 145.980
COMPASS 1 25 Jan 22:13:22 22:13:44 10° 271° (W) 22:13:47 437.405
50 SAT 25 Jan 22:13:58 22:18:02 64° 76° (ENE) 22:22:09 437.505
DUCHIFAT 1 25 Jan 22:14:32 22:15:37 11° 89° (E) 22:17:01 145.980
ISS 25 Jan 22:21:19 22:23:50 21° 131° (SE) 22:26:25 145.825
DOVE 4 25 Jan 22:23:19 22:25:12 12° 274° (W) 22:26:45 437.250
Oscar 11 25 Jan 22:24:49 22:27:53 18° 267° (W) 22:30:48 145.826/435.025
CUBEBUG 1 25 Jan 22:32:56 22:37:01 42° 73° (ENE) 22:41:09 437.445
SPROUT 25 Jan 22:37:42 22:38:25 11° 66° (ENE) 22:39:26 437.525
CINEMA 3 25 Jan 22:38:51 22:41:20 13° 272° (W) 22:43:34 145.822/145.860
UNISAT 6 25 Jan 22:39:18 22:43:32 40° 98° (E) 22:47:39 437.425
CUBEBUG 2 25 Jan 22:39:19 22:42:53 20° 268° (W) 22:46:22 437.445
JUGNU 25 Jan 22:42:07 22:44:39 13° 190° (S) 22:47:07 437.505
NANOSAT C BR1 25 Jan 22:46:01 22:49:41 27° 96° (E) 22:53:24 145.865
QB50P2 25 Jan 22:57:45 23:01:47 38° 98° (E) 23:05:49 145.880/145.840
UKube-1 25 Jan 22:59:10 23:01:10 13° 269° (W) 23:02:55 .
ZACube-1 25 Jan 23:05:16 23:07:58 15° 270° (W) 23:10:28 437.345
QB50P1 25 Jan 23:08:23 23:12:36 51° 100° (E) 23:16:47 145.935-145.965
ESTCUBE 1 25 Jan 23:08:23 23:12:51 67° 259° (W) 23:17:20 437.505/2401.250
SRMSAT 25 Jan 23:14:04 23:17:22 15° 184° (S) 23:20:38 437.500
ANTELSAT 25 Jan 23:14:47 23:19:17 76° 284° (WNW) 23:23:38 437.575/2403.000
AISAT 25 Jan 23:19:28 23:22:50 20° 266° (W) 23:26:07 437.250
POLYITAN 1 25 Jan 23:20:23 23:24:43 74° 102° (ESE) 23:29:00 437.675
FUNcube-1 25 Jan 23:20:34 23:21:30 10° 272° (W) 23:22:05 145.935
TIGRISAT 25 Jan 23:24:59 23:29:24 59° 285° (WNW) 23:33:42 435.000
TISAT 1 25 Jan 23:25:01 23:28:53 37° 73° (ENE) 23:32:50 437.305
BUGSAT 1 25 Jan 23:40:44 23:45:02 84° 283° (WNW) 23:49:19 437.445
AIST 1 25 Jan 23:41:59 23:46:13 51° 266° (W) 23:50:26
POPSAT HIP 1 25 Jan 23:42:38 23:46:55 61° 284° (WNW) 23:51:08 437.405
DUCHIFAT 1 25 Jan 23:47:41 23:51:55 53° 285° (WNW) 23:56:05 145.980
BEESAT 25 Jan 23:56:03 23:58:08 13° 65° (ENE) 00:00:27 436.000
ISS 25 Jan 23:57:12 00:00:13 33° 326° (NW) 00:03:15 145.825
ITUPSAT 1 25 Jan 23:57:23 23:59:31 13° 65° (ENE) 00:01:54 437.325
SPROUT 26 Jan 00:09:48 00:14:03 63° 259° (W) 00:18:22 437.525
CUBEBUG 1 26 Jan 00:11:15 00:13:40 14° 269° (W) 00:15:53 437.445
UNISAT 6 26 Jan 00:17:09 00:20:01 16° 293° (WNW) 00:22:40 437.425
NANOSAT C BR1 26 Jan 00:22:04 00:25:27 22° 290° (WNW) 00:28:43 145.865
QB50P2 26 Jan 00:34:41 00:37:26 16° 292° (WNW) 00:40:01 145.880/145.840
QB50P1 26 Jan 00:46:08 00:48:06 13° 293° (WNW) 00:49:51 145.935-145.965
Oscar 19 26 Jan 00:58:19 01:02:00 20° 93° (E) 01:05:49 437.125/150
TISAT 1 26 Jan 01:02:16 01:04:55 16° 268° (W) 01:07:24 437.305
SWISSCUBE 26 Jan 01:14:11 01:18:57 84° 259° (W) 01:23:44 437.505
KKS-1 26 Jan 01:18:18 01:21:13 18° 68° (ENE) 01:24:19 437.445
STARS 26 Jan 01:21:50 01:23:35 13° 66° (ENE) 01:25:35 437.465
GONETS M04 26 Jan 01:29:42 01:38:01 51° 91° (E) 01:46:23
BEESAT 26 Jan 01:30:50 01:35:33 60° 259° (W) 01:40:16 436.000
ITUPSAT 1 26 Jan 01:32:17 01:36:59 59° 259° (W) 01:41:43 437.325
Gurwin Techsat 1B 26 Jan 01:42:03 01:43:41 12° 88° (E) 01:45:41 435.225
AUBIESAT-1 26 Jan 01:48:12 01:50:51 17° 66° (ENE) 01:53:29 437.475
BEESAT 2 26 Jan 02:11:12 02:12:21 11° 109° (ESE) 02:13:44 435.950
BEESAT 3 26 Jan 02:27:14 02:30:14 21° 112° (ESE) 02:33:23 437.485
Oscar 19 26 Jan 02:36:43 02:41:34 41° 288° (WNW) 02:46:20 437.125/150
ITAMSAT 1 26 Jan 02:43:58 02:49:13 78° 101° (ESE) 02:54:27 435.822/435.867
M-CUBED/EXP-1 PRIME 26 Jan 02:44:54 02:49:11 86° 253° (WSW) 02:53:08 437.505
KKS-1 26 Jan 02:53:27 02:57:38 38° 262° (W) 03:01:49 437.445
STARS 26 Jan 02:55:18 02:59:39 56° 260° (W) 03:04:03 437.465
HORYU 2 26 Jan 02:59:41 03:02:56 20° 94° (E) 03:06:18 437.375
Gurwin Techsat 1B 26 Jan 03:19:00 03:24:18 73° 286° (WNW) 03:29:36 435.225
O/OREOS (USA 219) 26 Jan 03:19:49 03:24:26 89° 251° (WSW) 03:29:01 437.305
AUBIESAT-1 26 Jan 03:21:45 03:25:38 33° 257° (WSW) 03:29:12 437.475
AIST 2 26 Jan 03:22:47 03:26:29 31° 114° (ESE) 03:30:17 435.215
GONETS M04 26 Jan 03:27:31 03:35:13 32° 289° (WNW) 03:42:41
AO-7 26 Jan 03:40:55 03:47:57 31° 96° (E) 03:55:10 29.400- 29.500
DANDE 26 Jan 03:45:34 03:51:15 24° 84° (E) 03:57:46 436.750
BEESAT 2 26 Jan 03:46:06 03:50:08 55° 302° (WNW) 03:54:15 435.950
RS-15 26 Jan 03:55:11 04:02:09 21° 103° (ESE) 04:09:48 29.354- 29.394
BEESAT 3 26 Jan 04:04:33 04:08:14 31° 307° (NW) 04:11:56 437.485
MOZHAYETS 4 26 Jan 04:05:31 04:09:50 42° 73° (ENE) 04:14:11
ITAMSAT 1 26 Jan 04:26:00 04:28:09 12° 297° (WNW) 04:30:00 435.822/435.867
CUSAT 1 26 Jan 04:31:58 04:39:32 60° 93° (E) 04:47:53 437.405
HORYU 2 26 Jan 04:35:44 04:39:41 31° 289° (WNW) 04:43:34 437.375
JAS-2 26 Jan 04:48:20 04:53:45 47° 100° (E) 04:59:50 435.910
ISS 26 Jan 04:51:23 04:53:16 14° 25° (NNE) 04:55:12 145.825
PCSat 26 Jan 04:55:06 05:00:18 53° 113° (ESE) 05:05:36 145.827
AIST 2 26 Jan 05:01:40 05:05:09 23° 310° (NW) 05:08:36 435.215
DANDE 26 Jan 05:26:13 05:33:56 72° 281° (W) 05:42:40 436.750
AO-7 26 Jan 05:33:03 05:41:07 54° 293° (WNW) 05:49:03 29.400- 29.500
YUBILEINY 26 Jan 05:43:05 05:47:35 15° 62° (ENE) 05:52:42 435.215
MOZHAYETS 4 26 Jan 05:44:23 05:47:19 16° 269° (W) 05:50:02
PRISM 26 Jan 05:45:25 05:49:26 54° 75° (ENE) 05:53:29 437.425
CUBESAT XI-V 26 Jan 05:47:44 05:51:55 37° 73° (ENE) 05:56:11 437.345
Cubesat XI-IV 26 Jan 05:58:43 06:03:15 28° 95° (E) 06:07:53 437.490
RS-15 26 Jan 06:02:24 06:13:22 85° 300° (WNW) 06:24:26 29.354- 29.394
STRAND 1 26 Jan 06:04:30 06:09:17 44° 72° (ENE) 06:14:08 437.568
CUSAT 1 26 Jan 06:16:15 06:23:09 30° 292° (WNW) 06:30:14 437.405
CUTE-I 26 Jan 06:19:23 06:24:30 44° 98° (E) 06:29:38 437.470
ISS 26 Jan 06:26:52 06:30:11 84° 222° (SW) 06:33:29 145.825
JAS-2 26 Jan 06:34:25 06:38:43 22° 291° (WNW) 06:43:08 435.910
PCSat 26 Jan 06:39:58 06:44:06 21° 310° (NW) 06:48:07 145.827
DANDE 26 Jan 07:14:46 07:19:16 15° 302° (WNW) 07:23:20 436.750
CUBESAT XI-V 26 Jan 07:26:20 07:29:33 18° 268° (W) 07:32:39 437.345
YUBILEINY 26 Jan 07:37:08 07:45:58 86° 83° (E) 07:54:48 435.215
Cubesat XI-IV 26 Jan 07:38:35 07:43:23 33° 290° (WNW) 07:48:05 437.490
STRAND 1 26 Jan 07:45:07 07:48:45 19° 268° (W) 07:52:12 437.568
CUTE-I 26 Jan 08:00:15 08:04:19 22° 293° (WNW) 08:08:13 437.470
BRITE-PL 26 Jan 08:02:53 08:06:59 21° 90° (E) 08:11:10 437.365/2234.400
GOMX 1 26 Jan 08:16:31 08:20:11 19° 90° (E) 08:23:56 467.674
RS-15 26 Jan 08:18:58 08:27:43 25° 326° (NNW) 08:36:17 29.354- 29.394
COMPASS 1 26 Jan 08:22:30 08:23:24 11° 89° (E) 08:24:36 437.405
CANX-2 26 Jan 08:24:27 08:27:30 20° 93° (E) 08:30:39 2200.000
DOVE 4 26 Jan 08:44:45 08:48:57 25° 92° (E) 08:53:06 437.250
CUTE 1.7 + AOD 2 26 Jan 08:48:31 08:52:22 34° 97° (E) 08:56:14 437.475
AAUSAT CUBESAT 2 26 Jan 08:49:37 08:52:44 21° 94° (E) 08:55:56 437.432
CINEMA 3 26 Jan 08:58:09 09:01:18 18° 90° (E) 09:04:33 145.822/145.860
DELFI C3 26 Jan 09:06:14 09:07:21 11° 90° (E) 09:08:43 145.870
PHONESAT 2.4 26 Jan 09:07:11 09:08:27 12° 142° (SE) 09:09:51 2401.200-2431.200
HO-68 26 Jan 09:14:59 09:22:08 71° 103° (ESE) 09:29:16 435.675
ZACube-1 26 Jan 09:21:30 09:22:14 10° 88° (E) 09:23:15 437.345
SEEDS 26 Jan 09:23:47 09:28:00 80° 101° (ESE) 09:32:11 437.485
DX 1 26 Jan 09:28:33 09:31:16 16° 92° (E) 09:34:09 434.975-435.025
FUNcube-1 26 Jan 09:33:08 09:35:35 15° 90° (E) 09:38:11 145.935
UNISAT 6 26 Jan 09:35:53 09:39:54 29° 71° (ENE) 09:44:00 437.425
YUBILEINY 26 Jan 09:36:35 09:41:50 17° 279° (W) 09:46:30 435.215
NANOSAT C BR1 26 Jan 09:37:31 09:40:04 16° 68° (ENE) 09:42:48 145.865
BRITE-PL 26 Jan 09:40:17 09:45:47 48° 287° (WNW) 09:51:02 437.365/2234.400
UWE-3 26 Jan 09:43:36 09:47:19 25° 94° (E) 09:50:58 435.000/436.395/437.385
QB50P2 26 Jan 09:49:03 09:52:19 22° 70° (ENE) 09:55:41 145.880/145.840
HUMSAT D 26 Jan 09:50:35 09:52:05 12° 90° (E) 09:53:49 437.325/437.525
GOMX 1 26 Jan 09:53:22 09:58:39 49° 287° (WNW) 10:03:40 467.674
COMPASS 1 26 Jan 09:55:28 09:59:32 50° 285° (WNW) 10:03:33 437.405
QB50P1 26 Jan 09:59:13 10:02:50 28° 71° (ENE) 10:06:33 145.935-145.965
50 SAT 26 Jan 09:59:28 09:59:38 10° 89° (E) 10:00:05 437.505
CANX-2 26 Jan 09:59:49 10:03:31 29° 288° (WNW) 10:07:07 2200.000
VERMONT LUNAR 26 Jan 10:04:20 10:07:45 55° 155° (SSE) 10:11:12 437.305
VELOX 1 26 Jan 10:06:46 10:09:27 16° 92° (E) 10:12:18 145.980
ANTELSAT 26 Jan 10:10:49 10:15:30 70° 76° (ENE) 10:20:14 437.575/2403.000
POLYITAN 1 26 Jan 10:11:14 10:15:13 39° 73° (ENE) 10:19:17 437.675
Oscar 11 26 Jan 10:13:11 10:17:31 82° 283° (WNW) 10:21:49 145.826/435.025
SO-50 26 Jan 10:19:47 10:22:57 20° 111° (ESE) 10:26:20 436.795
TIGRISAT 26 Jan 10:20:36 10:25:19 87° 77° (ENE) 10:30:03 435.000
DOVE 4 26 Jan 10:22:03 10:26:48 34° 289° (WNW) 10:31:17 437.250
AAUSAT CUBESAT 2 26 Jan 10:24:54 10:28:25 26° 288° (WNW) 10:31:51 437.432
CUTE 1.7 + AOD 2 26 Jan 10:25:15 10:28:05 17° 291° (WNW) 10:30:47 437.475
BUGSAT 1 26 Jan 10:28:36 10:32:30 46° 74° (ENE) 10:36:28 437.445
CUBEBUG 2 26 Jan 10:32:08 10:36:45 74° 285° (WNW) 10:41:11 437.445
POPSAT HIP 1 26 Jan 10:32:51 10:37:06 72° 76° (ENE) 10:41:23 437.405
CINEMA 3 26 Jan 10:34:10 10:38:48 42° 287° (WNW) 10:43:11 145.822/145.860
DUCHIFAT 1 26 Jan 10:37:33 10:41:48 81° 75° (ENE) 10:46:05 145.980
DELFI C3 26 Jan 10:39:02 10:42:56 46° 286° (WNW) 10:46:47 145.870
RS-15 26 Jan 10:40:58 10:45:51 13° 1° (N) 10:50:50 29.354- 29.394
PHONESAT 2.4 26 Jan 10:43:02 10:46:36 60° 155° (SSE) 10:50:12 2401.200-2431.200
UKube-1 26 Jan 10:46:39 10:50:59 62° 285° (WNW) 10:55:16 .
ZACube-1 26 Jan 10:54:44 10:59:08 58° 285° (WNW) 11:03:23 437.345
DX 1 26 Jan 11:03:37 11:07:43 38° 288° (WNW) 11:11:46 434.975-435.025
ESTCUBE 1 26 Jan 11:04:05 11:08:03 30° 96° (E) 11:12:05 437.505/2401.250
HO-68 26 Jan 11:04:07 11:09:17 21° 299° (WNW) 11:14:09 435.675
FUNcube-1 26 Jan 11:08:02 11:12:14 41° 287° (WNW) 11:16:17 145.935
AISAT 26 Jan 11:11:41 11:16:13 88° 287° (WNW) 11:20:44 437.250
NANOSAT C BR1 26 Jan 11:11:41 11:15:41 38° 262° (W) 11:19:41 145.865
UNISAT 6 26 Jan 11:12:45 11:16:41 25° 266° (W) 11:20:32 437.425
UWE-3 26 Jan 11:20:02 11:23:50 26° 290° (WNW) 11:27:26 435.000/436.395/437.385
HUMSAT D 26 Jan 11:24:08 11:28:15 47° 286° (WNW) 11:32:16 437.325/437.525
QB50P2 26 Jan 11:24:27 11:28:07 27° 264° (W) 11:31:46 145.880/145.840
50 SAT 26 Jan 11:31:12 11:35:10 51° 286° (WNW) 11:39:04 437.505
QB50P1 26 Jan 11:35:29 11:38:47 21° 266° (W) 11:41:58 145.935-145.965
VELOX 1 26 Jan 11:42:01 11:46:16 41° 287° (WNW) 11:50:27 145.980
VERMONT LUNAR 26 Jan 11:42:32 11:45:56 48° 350° (N) 11:49:22 437.305
GONETS M04 26 Jan 11:44:05 11:50:07 21° 66° (ENE) 11:56:33
AIST 2 26 Jan 11:48:20 11:50:04 12° 44° (NE) 11:51:57 435.215
POLYITAN 1 26 Jan 11:48:48 11:51:24 15° 269° (W) 11:53:49 437.675
SO-50 26 Jan 11:58:56 12:03:14 39° 306° (NW) 12:07:39 436.795
SPROUT 26 Jan 11:59:36 12:03:17 27° 95° (E) 12:07:01 437.525
CUBEBUG 1 26 Jan 12:00:26 12:04:51 64° 285° (WNW) 12:09:15 437.445
BUGSAT 1 26 Jan 12:06:51 12:08:21 11° 270° (W) 12:09:37 437.445
BEESAT 2 26 Jan 12:08:24 12:12:21 40° 55° (NE) 12:16:15 435.950
AIST 1 26 Jan 12:08:43 12:12:57 76° 277° (W) 12:17:14
Oscar 19 26 Jan 12:12:45 12:16:47 24° 68° (ENE) 12:20:56 437.125/150
PHONESAT 2.4 26 Jan 12:21:44 12:25:16 47° 351° (N) 12:28:49 2401.200-2431.200
ITAMSAT 1 26 Jan 12:25:43 12:25:46 10° 62° (ENE) 12:26:10 435.822/435.867
BEESAT 3 26 Jan 12:25:50 12:30:00 73° 59° (ENE) 12:34:04 437.485
ESTCUBE 1 26 Jan 12:41:17 12:44:49 22° 290° (WNW) 12:48:15 437.505/2401.250
TISAT 1 26 Jan 12:47:45 12:52:04 81° 283° (WNW) 12:56:21 437.305
RS-15 26 Jan 12:54:51 13:03:54 28° 36° (NE) 13:13:34 29.354- 29.394
Gurwin Techsat 1B 26 Jan 13:00:15 13:03:18 16° 65° (ENE) 13:06:34 435.225
SWISSCUBE 26 Jan 13:17:36 13:21:46 30° 96° (E) 13:26:00 437.505
VERMONT LUNAR 26 Jan 13:21:02 13:24:25 44° 7° (N) 13:27:50 437.305
AIST 2 26 Jan 13:24:59 13:29:15 71° 242° (WSW) 13:33:25 435.215
BEESAT 26 Jan 13:33:49 13:38:19 42° 98° (E) 13:42:51 436.000
ITUPSAT 1 26 Jan 13:35:36 13:40:08 43° 99° (E) 13:44:41 437.325
SPROUT 26 Jan 13:35:49 13:39:18 23° 290° (WNW) 13:42:39 437.525
GONETS M04 26 Jan 13:39:18 13:47:58 73° 266° (W) 13:56:35
PCSat 26 Jan 13:45:55 13:50:22 26° 52° (NE) 13:54:54 145.827
BEESAT 2 26 Jan 13:47:42 13:50:17 16° 250° (WSW) 13:52:41 435.950
Oscar 19 26 Jan 13:51:08 13:55:57 37° 263° (W) 14:00:44 437.125/150
HORYU 2 26 Jan 13:56:42 13:59:12 15° 67° (ENE) 14:01:55 437.375
ITAMSAT 1 26 Jan 13:59:26 14:04:37 90° 26° (NNE) 14:09:50 435.822/435.867
PHONESAT 2.4 26 Jan 14:00:40 14:04:12 47° 8° (N) 14:07:46 2401.200-2431.200
DANDE 26 Jan 14:34:27 14:37:09 13° 56° (NE) 14:39:59 436.750
AO-7 26 Jan 14:37:14 14:44:29 35° 63° (ENE) 14:51:54 29.400- 29.500
Gurwin Techsat 1B 26 Jan 14:37:37 14:42:51 59° 259° (W) 14:48:06 435.225
KKS-1 26 Jan 14:46:58 14:51:20 49° 99° (E) 14:55:41 437.445
STARS 26 Jan 14:48:07 14:52:06 32° 97° (E) 14:56:05 437.465
SWISSCUBE 26 Jan 14:55:38 14:59:32 25° 291° (WNW) 15:03:20 437.505
VERMONT LUNAR 26 Jan 14:59:10 15:02:41 69° 204° (SSW) 15:06:13 437.305
JAS-2 26 Jan 15:01:48 15:04:10 13° 65° (ENE) 15:06:46 435.910
AUBIESAT-1 26 Jan 15:06:39 15:08:35 15° 99° (E) 15:10:39 437.475
RS-15 26 Jan 15:06:40 15:18:09 88° 63° (ENE) 15:30:10 29.354- 29.394
BEESAT 26 Jan 15:12:35 15:15:55 18° 292° (WNW) 15:19:05 436.000
ITUPSAT 1 26 Jan 15:14:27 15:17:45 18° 293° (WNW) 15:20:53 437.325
CUSAT 1 26 Jan 15:18:38 15:24:25 34° 69° (ENE) 15:28:58 437.405
PCSat 26 Jan 15:28:53 15:33:57 41° 249° (WSW) 15:38:58 145.827
HORYU 2 26 Jan 15:31:13 15:35:34 46° 261° (W) 15:39:54 437.375
PHONESAT 2.4 26 Jan 15:39:16 15:42:54 63° 205° (SSW) 15:46:32 2401.200-2431.200
GONETS M04 26 Jan 15:41:20 15:43:32 11° 282° (WNW) 15:44:53
O/OREOS (USA 219) 26 Jan 15:52:40 15:54:52 14° 100° (E) 15:57:19 437.305
M-CUBED/EXP-1 PRIME 26 Jan 16:04:29 16:07:47 64° 289° (WNW) 16:11:08 437.505
MOZHAYETS 4 26 Jan 16:05:19 16:06:57 12° 89° (E) 16:08:52
DANDE 26 Jan 16:15:17 16:22:16 87° 263° (W) 16:27:23 436.750
STARS 26 Jan 16:25:03 16:28:25 21° 291° (WNW) 16:31:38 437.465
KKS-1 26 Jan 16:25:08 16:27:38 14° 293° (WNW) 16:29:55 437.445
AO-7 26 Jan 16:29:01 16:37:04 49° 259° (W) 16:45:06 29.400- 29.500
VERMONT LUNAR 26 Jan 16:38:35 16:40:27 14° 216° (SW) 16:42:14 437.305
AUBIESAT-1 26 Jan 16:40:54 16:43:35 23° 292° (WNW) 16:46:16 437.475
